sat.trackr.live / text

‹ back to catalog

STARLINK-11629 [DTC]

NORAD 63104 · 2025-039A

PAYLOAD ACTIVE UNKNOWN

§ Identity

Operator
Country
US
Launch date
2025-02-27
Launch site
AFETR
Launch vehicle
Mass (kg)
RCS (m²)

Purposes: comms

External: N2YO · Heavens-Above · Gunter

§ Orbital elements

Epoch: 2026-05-25T00:35:55.624704Z

Period
91.67 min
Inclination
42.9976°
Eccentricity
0.0001511
Mean motion
15.70875301 rev/d
Perigee alt
355.4 km
Apogee alt
357.4 km
Semi-major
6,734.5 km
B*
1.0075e-3
RAAN
136.4864°
Arg perigee
200.2819°
Mean anomaly
159.7988°
Rev number
7,162

§ Raw data

STARLINK-11629 [DTC]1 63104U 25039A   26145.02494936  .00131078  00000+0  10075-2 0  99922 63104  42.9976 136.4864 0001511 200.2819 159.7988 15.70875301 71625

JSON: /api/v1/satellites/63104 · /tle

For live sub-satellite position, see the globe view (requires WebGL).

§ Visibility from observer

Set your observer location to see the next 7 days of passes ≥ 10°. The values pass through the URL so the page stays shareable.

No JS? Fill the form by hand. The geolocation button needs JavaScript.